Regional Weather Roundup
Issued by NWS

Home | Current Version | Previous Version | Text Only | Print | Product List | Glossary Off
Versions: 1 2 3 4 5 6 7 8 9 10 11 12 13 14 15 16 17 18 19 20 21 22 23 24 25 26 27 28 29 30 31 32 33 34 35 36 37 38 39 40 41 42 43 44 45 46 47 48 49 50

750
ASUS43 KIND 221309
RWRIN

WEATHER ROUNDUP FOR INDIANA
NATIONAL WEATHER SERVICE INDIANAPOLIS IN
800 AM EST WED FEB 22 2017

NOTE: "FAIR" INDICATES FEW OR NO CLOUDS BELOW 12,000 FEET WITH NO
SIGNIFICANT WEATHER AND/OR OBSTRUCTIONS TO VISIBILITY.

* - STATION DOES NOT REPORT WEATHER SUCH AS PRECIPITATION OR FOG.

+ - STATION NOT QUALITY CONTROLLED BY THE NATIONAL WEATHER SERVICE.
    USE DATA WITH CAUTION...ESPECIALLY DEWPOINT AND RELATIVE
    HUMIDITY OBSERVATIONS.

INZ001>003-010>013-019-020-221400-
NORTHWEST INDIANA

CITY           SKY/WX    TMP DP  RH WIND       PRES   REMARKS
GARY /AIRPORT/ CLOUDY    55  52  88 S8        29.84F FOG
KNOX *+        CLOUDY    52  41  66 SW6       29.85S
LA PORTE +     FAIR      48  47  98 CALM      29.85F FOG
MICHIGAN CITY+ CLOUDY    52  52 100 SW6       29.85S
MONTICELLO +   CLOUDY    52  51  95 S5        29.86F FOG
RENSSELAER +   FOG       45  45 100 S3        29.86S VSB<1/4
VALPARAISO     CLOUDY    52  51  97 S8        29.84F FOG

$$

LMZ046-743>745-221400-
SOUTHERN LAKE MICHIGAN

STATION/POSITION TIME  TEMP    WIND        PRES    WAVE
                       AIR SEA DIR/SP/G            HT
                 (UTC) (F)     (DEG/KT/KT) (MB)    (FT)
BURNS HARBOR     1205   54     180/  9/ 14 1010.8
MICHIGAN CITY    1240   53     170/  7/  9   N/A

$$

INZ004-005-014>016-021>024-221400-
NORTH CENTRAL INDIANA

CITY           SKY/WX    TMP DP  RH WIND       PRES   REMARKS
ELKHART        FOG       46  46 100 CALM      29.85F VSB 1/4
GOSHEN         FAIR      50  48  93 S7        29.86F FOG
LOGANSPORT +   FOG       50  50 100 S6        29.88F VSB 3/4
PERU/GRISSOM   FOG       51  51 100 S5        29.87S VSB 1/8
ROCHESTER +      N/A     54  54 100 S3        29.87S FOG
SOUTH BEND     MOCLDY    47  47 100 S6        29.85F FOG
WARSAW +       CLOUDY    52  52 100 CALM      29.87S FOG

$$

INZ006>009-017-018-025>027-221400-
NORTHEAST INDIANA

CITY           SKY/WX    TMP DP  RH WIND       PRES   REMARKS
ANGOLA *+      CLOUDY    52  52 100 CALM      29.87S
AUBURN +       CLOUDY    54  52  94 S5        29.89R FOG
FORT WAYNE     FOG       53  51  93 S7        29.90R VSB 1
HUNTINGTON +   FOG       51  50  96 CALM      29.89S VSB 1
KENDALLVILLE + CLOUDY    52  52 100 SW6       29.88S FOG

$$

INZ028-029-035-036-043>045-051>053-221400-
WEST CENTRAL INDIANA

CITY           SKY/WX    TMP DP  RH WIND       PRES   REMARKS
GREENCASTLE +  FOG       48  48 100 CALM      29.89S VSB<1/4
LAFAYETTE      FOG       47  47 100 CALM      29.87F VSB<1/4
TERRE HAUTE    FOG       44  43  96 CALM      29.89S VSB<1/4

$$

INZ030>032-037>040-046>048-054>057-064-065-221400-
CENTRAL INDIANA

CITY           SKY/WX    TMP DP  RH WIND       PRES   REMARKS
CP ATTERBURY + CLOUDY    54  52  94 SE3       29.91S
COLUMBUS       CLOUDY    54  54 100 S5        29.92R FOG
FRANKFORT +    FOG       47  46  97 S5        29.90S VSB<1/4
GREENWOOD *+   MOCLDY    53  53 100 CALM      29.90S
INDIANAPOLIS   MOCLDY    54  52  93 S5        29.89S FOG
-EAGLE CREEK   CLOUDY    50  49  96 CALM      29.89R FOG
KOKOMO +       FOG       52  52 100 S7        29.90R VSB 1/2
MARION +       CLOUDY    52  52 100 S7        29.90S FOG
MT COMFORT *+  CLOUDY    54  52  94 CALM      29.91R
SHELBYVILLE    MOCLDY    56  53  90 S7        29.90S FOG
ZIONSVILLE +   FOG       49  49  99 CALM      29.90S VSB<1/4

$$

INZ033-034-041-042-049-050-058-059-221400-
EAST CENTRAL INDIANA

CITY           SKY/WX    TMP DP  RH WIND       PRES   REMARKS
MUNCIE         CLOUDY    57  54  89 S5        29.90S

$$

INZ060-061-067>069-081>083-085>088-221400-
SOUTHWEST INDIANA

CITY           SKY/WX    TMP DP  RH WIND       PRES   REMARKS
EVANSVILLE     CLOUDY    54  52  93 CALM      29.91R FOG
HUNTINGBURG *+ CLOUDY    56  55  97 S5        29.92R
WASHINGTON +   FOG       50  49  93 S5        29.90S VSB<1/4

$$

INZ062-063-066-070>080-084-089>092-221400-
SOUTH CENTRAL AND SOUTHEAST INDIANA

CITY           SKY/WX    TMP DP  RH WIND       PRES   REMARKS
BEDFORD +      CLOUDY   N/A N/A N/A S3        29.91S
BLOOMINGTON    CLOUDY    56  53  90 SW7       29.90S FOG
MADISON *+     CLOUDY    55  54  94 S6        29.94S
NORTH VERNON + CLOUDY   N/A N/A N/A S3        29.92S
SEYMOUR +      CLOUDY    55  55 100 CALM      29.92R FOG

$$





USA.gov is the U.S. government's official web portal to all federal, state and local government web resources and services.